Wind_Speed
17 19 18 17 17 18 19 20 21 23 25 25 25 24 23 23 23 22 21 20 19 19 18 18 18 17 17 17 16 16 15 15 14 14 13 13 12 12 11 11 11 11 11 10 11 11 11 12 12 12 12 12 12 13 14 13 13 14 15 15 15 15 15 15 15 15 15 15 15 15 14 14 14 15 16 15 15 15 16 18 20 21 20 19 19
21 21 20 19 18 17 18 18 19 21 22 23 23 23 23 22 22 21 20 19 19 18 18 17 17 17 17 16 16 16 15 14 14 13 13 12 12 11 11 11 11 11 11 11 12 12 11 12 13 13 12 12 14 13 13 14 14 15 15 15 16 15 15 15 14 15 15 15 15 14 14 14 14 14 15 15 15 15 16 17 19 20 20 19 19
22 22 22 21 18 17 17 18 19 20 20 21 21 21 21 21 21 21 19 19 18 17 17 17 17 17 16 16 16 15 15 14 14 13 13 13 12 12 11 11 11 11 12 12 12 12 12 12 13 13 13 13 14 13 13 14 14 15 15 15 16 16 15 14 14 15 15 15 15 14 15 15 15 15 15 16 16 16 16 17 17 18 19 19 19
23 22 22 21 18 17 16 18 19 19 19 19 20 19 19 19 21 20 18 17 17 17 17 17 16 16 15 15 15 14 14 14 14 13 13 12 12 12 12 11 11 11 12 12 12 12 12 13 13 13 13 13 13 13 13 14 14 15 15 15 15 15 14 14 14 14 14 15 15 16 16 16 15 16 16 16 16 16 15 15 16 16 17 18 18
25 23 22 21 19 18 17 18 18 18 18 18 18 17 18 19 19 18 17 17 17 17 16 16 16 15 15 14 14 14 14 14 13 13 12 12 12 12 12 12 11 11 11 12 13 12 12 13 13 13 13 13 14 13 13 13 13 14 14 15 14 14 14 13 13 14 15 16 17 18 17 16 15 15 15 15 15 15 15 15 16 16 16 17 18
26 24 23 22 20 19 17 17 17 17 17 17 16 16 17 18 17 17 16 16 16 16 15 15 15 14 14 14 13 13 13 13 13 12 12 12 12 12 13 12 12 12 12 12 13 12 12 13 13 13 12 13 14 13 13 13 13 13 14 14 14 14 13 13 14 15 17 18 19 18 17 16 15 15 15 14 15 15 14 15 16 16 17 17 17
26 24 23 22 21 20 18 17 17 17 17 16 16 16 17 16 16 15 16 15 15 14 14 14 13 13 13 13 13 12 12 12 12 11 11 11 11 12 12 12 11 12 12 12 12 12 13 13 13 12 12 13 13 12 13 13 13 13 13 14 15 14 13 14 15 17 18 19 19 18 17 16 15 14 15 15 15 16 15 15 16 16 17 17 16
25 23 22 22 21 20 18 17 18 17 17 16 16 16 17 16 15 15 15 15 14 13 13 13 12 12 12 12 12 11 11 11 11 10 10 11 11 11 11 11 11 12 12 12 12 12 13 13 12 12 12 12 12 12 12 12 13 13 13 14 15 14 14 15 16 18 18 19 18 17 16 15 15 15 15 15 16 16 16 16 16 16 16 15 15
24 22 22 22 21 20 18 17 18 18 17 16 16 17 16 15 15 15 15 14 14 13 13 12 12 12 11 11 11 10 11 10 10 9 10 10 11 11 11 11 11 12 12 12 13 13 12 12 12 12 11 11 11 11 10 11 12 12 13 13 14 15 15 16 17 18 18 17 17 16 15 15 16 16 16 16 16 16 16 16 15 15 15 14 14
26 23 23 22 22 19 17 18 18 17 16 15 16 16 15 15 15 15 15 14 13 13 12 12 11 11 11 11 10 10 10 10 9 9 9 9 10 11 11 11 11 11 12 12 12 13 12 12 12 11 11 10 10 10 11 11 11 12 13 14 15 15 16 17 17 18 17 17 16 16 16 17 17 16 16 16 16 15 15 15 15 15 14 14 13
28 26 24 22 22 20 19 19 18 17 15 15 15 14 15 15 15 15 14 13 13 12 12 12 11 11 11 10 10 10 9 9 9 9 9 9 10 10 10 10 11 11 11 11 11 12 12 11 11 10 10 10 9 10 11 12 12 13 14 15 16 16 16 18 19 18 17 17 17 16 17 17 17 15 15 15 15 15 14 14 14 14 13 13 12
29 28 25 23 22 21 20 19 18 17 15 16 15 14 14 14 14 13 12 12 12 11 11 11 11 10 10 10 10 10 9 9 9 9 9 8 9 10 10 10 11 10 11 11 11 12 11 11 11 10 10 10 10 11 11 12 13 14 15 16 16 16 17 19 18 17 16 16 16 17 17 17 16 15 14 14 14 14 14 14 13 13 13 12 12
30 28 26 24 23 21 19 18 18 16 16 16 15 15 14 14 14 13 12 12 11 11 11 11 10 10 9 9 9 10 9 9 8 8 9 8 8 9 10 10 10 10 10 10 10 11 11 11 11 10 10 10 11 11 12 12 13 14 14 15 16 16 17 18 16 15 15 16 17 17 17 16 15 14 14 14 14 14 14 14 13 13 13 13 13
30 28 26 24 22 20 18 19 18 17 17 16 16 15 14 14 13 13 12 11 11 10 11 10 10 10 9 10 9 9 9 9 8 8 8 8 8 8 9 9 9 9 10 10 10 10 11 11 10 10 11 11 12 12 12 13 13 15 14 14 15 15 16 16 15 15 17 17 18 17 16 16 14 13 14 14 14 14 14 14 13 13 13 13 13
30 28 26 24 21 19 18 19 18 18 17 16 16 15 15 15 13 13 12 11 11 10 11 10 10 10 10 10 10 9 8 8 8 8 8 8 8 8 8 9 9 9 9 9 9 10 10 10 10 10 11 12 12 12 13 13 13 14 14 14 14 14 15 15 15 16 17 18 17 16 15 14 13 13 13 14 14 14 14 14 13 13 13 12 12
29 27 26 24 21 19 18 18 18 18 17 16 16 16 15 14 13 13 12 12 11 11 10 11 10 10 11 10 9 9 8 8 8 9 8 8 8 7 8 8 9 9 9 9 9 9 10 10 10 10 11 12 12 11 12 13 13 13 13 13 13 13 14 14 15 16 17 17 16 15 14 13 12 13 13 13 13 13 13 13 13 12 12 11 11
27 26 25 23 21 20 19 18 18 18 16 16 16 15 15 14 13 13 13 13 12 11 10 11 11 10 11 9 9 9 8 8 8 8 8 7 7 7 8 8 9 9 9 8 9 9 9 9 10 11 11 10 11 11 11 12 13 12 12 12 12 12 13 13 14 15 16 16 15 15 14 12 12 12 12 13 12 12 12 12 12 11 11 10 10
26 25 24 23 22 21 20 19 18 17 16 15 15 14 15 14 14 13 13 13 12 12 11 11 11 11 10 9 9 8 8 8 8 8 7 8 7 7 7 9 10 9 9 8 8 8 9 9 9 11 10 10 11 11 11 12 12 11 12 12 12 12 12 13 13 14 15 15 14 14 13 11 11 11 11 11 11 11 11 11 10 10 10 9 9
25 24 24 22 22 21 20 19 19 18 16 15 15 15 15 14 14 13 13 13 12 12 12 11 11 11 10 9 9 8 8 7 7 8 8 8 7 7 7 9 10 9 9 8 9 8 9 9 9 11 11 10 11 11 11 12 12 11 12 12 12 11 11 12 12 13 13 14 14 13 12 11 10 10 10 10 10 9 9 9 9 9 8 8 8
23 23 23 22 22 22 21 20 19 18 17 16 16 15 15 14 14 14 13 13 13 13 12 11 11 11 10 9 9 9 8 7 7 7 8 7 7 7 8 10 10 10 9 9 9 9 9 10 9 10 11 11 10 10 11 12 12 12 12 12 11 10 10 11 11 11 12 12 12 12 11 10 10 9 9 9 9 8 8 8 7 7 7 7 7
22 23 23 23 22 22 22 20 19 18 18 17 16 15 15 13 13 13 13 13 13 13 12 11 11 10 10 9 9 9 9 8 7 7 8 8 8 8 9 10 11 11 10 9 9 9 10 9 9 10 10 11 10 10 11 11 12 11 11 10 9 9 9 9 9 10 10 10 11 11 11 9 9 8 8 8 8 7 7 7 6 6 6 6 6
23 23 23 22 22 22 21 20 19 19 18 17 17 15 14 14 13 13 13 13 12 13 12 12 11 10 10 10 10 10 9 9 8 8 8 8 8 8 9 10 11 11 10 10 9 9 9 9 10 10 9 10 10 9 10 11 11 10 8 8 7 7 7 7 8 8 9 9 10 10 10 9 8 8 8 7 7 6 6 5 5 4 5 5 5
23 23 23 22 22 22 21 20 20 20 19 18 17 16 14 14 15 14 14 14 13 13 12 12 12 11 11 11 11 10 10 9 9 9 9 8 8 8 9 9 10 10 10 10 9 9 9 9 10 10 9 9 9 9 8 9 9 8 5 5 6 6 5 5 6 7 8 8 9 9 9 8 7 7 7 6 6 5 5 4 4 3 4 3 3
24 24 23 22 22 22 21 21 21 21 20 19 18 16 15 15 16 15 15 14 14 13 13 12 12 11 11 11 11 11 10 9 9 9 9 9 8 9 9 10 10 10 10 10 9 9 10 9 9 9 9 9 8 8 7 7 7 7 5 2 3 3 3 3 4 7 8 8 8 8 8 7 7 6 6 6 6 5 4 3 3 2 3 2 2
24 23 22 22 23 22 21 22 22 21 20 19 19 17 17 17 17 16 15 15 14 14 13 12 11 11 11 11 11 11 11 10 9 9 9 9 9 9 9 10 10 10 10 10 10 9 9 9 9 8 8 8 7 6 6 6 5 6 5 2 0 1 2 1 3 6 7 8 8 8 7 7 7 6 6 6 5 4 4 3 2 2 2 2 1
23 23 23 23 24 23 23 22 22 22 21 20 19 18 18 18 18 17 17 15 15 14 13 12 12 12 12 11 11 11 11 10 9 9 10 10 9 9 9 9 9 9 9 9 8 8 8 8 8 8 8 7 6 6 5 4 4 4 4 3 1 1 1 1 3 5 7 7 8 8 8 7 6 5 5 5 4 4 3 3 2 2 1 1 1
23 23 23 23 24 24 24 23 23 23 22 21 20 19 19 19 19 18 18 16 16 15 14 13 12 12 12 12 11 11 11 10 9 9 10 9 9 9 9 9 9 8 8 7 6 7 7 7 7 8 7 7 6 6 5 4 4 4 5 5 3 1 1 2 3 5 6 7 7 8 8 7 7 6 5 5 4 4 4 3 3 2 2 2 1
23 23 23 23 25 25 25 24 24 24 23 22 21 20 20 19 19 18 18 17 17 16 15 14 13 13 12 12 11 10 10 10 9 10 9 9 8 8 8 7 7 7 6 6 6 6 7 6 6 6 6 6 6 6 6 5 5 5 7 7 5 3 2 3 4 5 5 6 6 6 6 6 7 7 6 5 5 5 4 4 4 3 3 3 2
23 24 24 24 25 25 26 25 25 25 24 23 22 21 21 20 20 19 18 18 18 17 16 15 14 13 12 12 10 9 10 10 9 9 9 9 8 7 6 6 5 5 6 6 6 6 6 6 6 5 5 5 5 6 6 6 6 7 8 8 6 5 4 4 4 5 5 5 5 5 5 5 6 6 7 6 5 5 5 5 5 4 4 4 3
25 24 25 25 25 26 26 26 26 25 24 23 23 22 22 21 20 20 19 19 18 17 16 15 15 13 13 12 10 9 8 9 9 9 9 8 7 6 6 5 5 5 5 5 5 5 5 6 5 5 4 4 5 5 6 6 8 9 9 8 7 5 5 5 4 5 5 5 5 4 4 4 4 5 6 6 5 5 5 5 5 5 4 4 4
25 24 25 26 26 27 26 26 26 25 25 24 24 23 22 21 20 20 20 19 18 17 17 16 16 14 13 12 11 9 8 8 8 8 8 8 7 7 6 5 5 5 5 5 5 5 5 5 5 5 4 5 5 5 6 6 8 9 9 8 7 6 6 5 5 5 5 5 4 3 3 3 3 3 4 5 5 5 5 5 5 4 4 4 4
26 27 27 26 27 27 27 26 26 25 25 24 24 24 23 22 21 20 20 19 18 18 18 17 16 15 13 12 11 10 9 9 8 8 9 8 8 7 6 6 6 6 5 5 6 6 5 5 5 5 4 5 5 5 6 7 9 9 8 9 9 8 7 6 5 5 5 5 5 4 3 3 3 3 4 4 4 5 5 5 5 5 5 5 5
27 28 27 27 28 28 27 26 26 26 25 25 24 24 23 22 21 21 20 19 18 18 18 17 16 15 14 13 12 10 10 9 8 8 9 9 8 8 7 7 6 6 6 6 6 6 6 5 5 5 4 5 5 5 4 6 11 10 9 10 10 8 7 6 5 4 5 5 5 4 4 4 4 4 4 4 4 4 4 4 4 5 5 5 5
27 27 27 28 29 28 28 27 27 25 25 25 25 24 24 23 22 21 20 19 18 18 17 16 15 14 15 14 13 11 10 10 9 9 9 9 8 8 8 8 8 8 7 6 6 6 6 6 6 5 5 5 5 5 3 4 10 12 10 10 9 8 7 6 5 4 4 4 5 5 5 5 5 5 5 5 5 5 5 5 5 5 6 6 6
28 29 29 29 29 29 28 27 27 26 24 25 25 25 24 24 22 21 21 19 18 17 16 15 14 14 14 15 14 13 12 10 10 10 10 10 8 9 9 9 10 9 7 7 6 6 6 7 7 6 6 6 5 5 3 4 10 12 11 11 9 8 7 6 5 5 4 4 5 5 5 5 5 5 5 5 5 5 5 6 6 7 7 7 7
30 31 31 30 29 29 29 28 28 27 25 24 25 26 25 24 23 22 21 20 18 18 16 15 14 14 14 14 14 14 13 12 10 10 11 10 8 9 9 9 9 8 7 7 6 5 5 7 7 7 6 6 6 4 2 4 9 11 10 10 10 8 7 6 5 5 5 5 5 5 5 5 5 5 5 5 5 5 5 6 7 8 9 9 9
32 32 32 31 30 29 29 29 29 28 26 24 24 25 25 23 22 21 21 20 19 18 17 16 15 15 14 13 13 14 14 13 12 11 11 10 9 9 9 9 8 8 8 8 7 5 6 7 7 7 6 6 6 4 3 3 7 11 10 10 10 9 8 6 5 5 6 6 6 5 4 4 5 5 5 5 5 5 5 6 7 8 9 10 10
33 33 34 33 32 30 30 29 29 29 27 25 24 24 24 23 21 21 21 20 19 18 17 16 17 16 15 14 13 13 14 13 13 13 12 11 9 9 9 9 8 8 8 8 7 6 7 7 7 7 6 7 6 5 4 3 6 10 9 9 11 10 8 6 5 6 7 7 6 6 5 4 5 5 5 5 5 5 5 6 7 8 9 9 10
34 34 34 34 32 31 31 30 29 29 28 27 25 24 23 23 22 22 22 20 19 18 18 17 18 17 17 16 14 14 14 13 13 13 12 11 10 10 9 9 9 8 8 9 8 7 7 7 7 7 6 7 7 6 5 5 5 7 7 6 8 8 7 6 6 7 7 7 7 7 7 6 5 5 5 6 6 6 6 6 7 8 8 9 9
34 34 35 34 33 32 31 30 30 30 29 28 26 25 24 24 24 23 23 21 20 19 19 19 19 19 19 18 17 16 15 14 13 13 12 11 10 10 10 9 9 8 9 9 9 8 7 7 7 6 6 6 7 6 7 6 5 7 6 6 7 7 6 6 7 7 7 7 7 8 9 8 7 6 6 6 7 7 7 7 8 8 9 9 8
33 35 34 35 34 33 32 32 31 31 30 29 28 27 27 26 25 25 24 23 21 20 20 21 20 20 20 19 19 17 16 15 13 12 12 11 11 11 10 9 9 8 9 9 9 9 8 8 7 6 5 5 6 7 8 7 6 7 6 5 6 7 6 6 7 7 7 7 8 9 10 10 10 8 7 8 8 8 8 8 8 9 9 9 8
32 34 35 35 35 34 34 33 33 32 31 31 30 28 28 28 26 26 26 24 22 22 22 22 21 22 22 21 21 19 17 16 15 13 12 12 12 11 11 10 9 9 9 10 11 10 9 8 8 6 4 3 5 7 8 7 7 6 4 3 2 4 6 7 8 8 9 9 10 11 12 12 12 11 10 10 10 10 9 9 9 10 10 9 9
33 34 35 36 35 35 35 34 34 34 33 32 31 30 29 28 27 26 26 24 23 23 21 21 22 24 23 22 22 20 19 18 16 15 14 13 12 11 11 10 9 9 9 10 11 11 10 10 9 7 4 4 6 8 7 5 7 7 3 1 1 1 3 6 8 9 10 12 12 13 13 14 14 13 13 13 12 11 10 10 10 10 10 10 10
33 34 36 36 35 36 36 35 35 35 35 33 32 31 29 28 27 24 25 24 23 23 22 22 24 24 23 22 21 21 20 18 17 16 15 13 12 11 11 10 10 9 9 10 11 11 11 11 9 7 6 5 6 9 7 3 7 8 3 1 0 2 2 4 7 9 10 11 13 14 14 15 15 14 15 15 14 13 12 12 12 12 11 11 11
33 35 37 36 36 36 37 36 35 35 35 34 33 31 29 28 26 22 22 22 21 23 24 24 25 25 22 21 20 20 20 19 18 17 16 14 12 11 11 10 10 9 9 10 10 10 10 11 9 8 6 5 5 7 7 4 5 9 6 2 1 1 2 2 3 6 9 11 12 12 14 15 15 16 16 15 15 14 14 13 13 13 13 13 13
34 37 38 38 36 36 37 36 35 35 35 35 33 31 29 30 28 24 24 23 20 23 27 27 26 26 24 21 20 20 20 19 18 18 16 14 12 11 11 11 10 9 9 9 9 10 10 10 9 8 7 5 4 5 7 5 4 8 9 5 2 2 3 1 1 2 6 9 10 10 11 13 14 16 17 17 17 16 16 15 14 14 14 14 14
35 37 37 38 37 36 37 37 36 36 36 35 34 33 31 31 32 29 27 27 24 24 28 29 28 27 25 23 22 21 20 19 19 19 17 15 13 12 12 11 10 9 9 9 10 10 10 10 9 8 7 6 6 6 7 7 6 7 8 8 7 5 3 2 2 0 2 5 8 10 11 11 13 16 18 19 19 18 18 17 16 16 15 15 15
35 36 36 37 37 37 38 38 37 36 36 36 35 35 34 33 33 32 29 29 28 26 26 28 27 26 26 25 23 22 21 20 19 19 19 16 14 13 12 11 10 10 10 10 10 10 10 10 9 8 8 7 7 7 7 7 7 6 6 8 8 6 4 4 4 2 2 1 5 6 9 11 13 15 16 17 19 20 19 19 18 18 17 17 17
35 36 37 37 37 37 38 37 37 37 36 36 36 36 35 34 33 33 31 30 29 26 24 25 25 26 26 26 24 23 21 21 20 19 19 18 16 14 12 11 10 10 11 10 10 10 10 10 9 9 9 8 8 8 8 8 8 6 5 6 6 4 3 4 5 4 2 0 3 4 6 8 9 11 12 14 17 19 20 20 20 20 19 19 18
35 36 37 36 36 36 37 38 37 37 37 37 37 37 36 35 34 34 32 31 30 26 23 23 24 26 27 27 25 24 23 22 21 20 19 19 17 15 13 12 11 11 11 11 11 11 11 10 10 9 9 8 8 9 8 7 7 6 4 5 6 4 3 4 4 4 3 2 2 4 7 8 7 8 8 10 14 16 18 20 20 21 20 19 19
33 35 36 36 36 37 37 39 39 38 37 37 38 38 37 36 35 35 33 32 31 27 24 24 25 26 28 28 27 25 24 23 21 20 20 20 18 17 15 13 12 12 12 12 12 12 12 11 10 10 10 9 8 10 10 8 7 7 6 5 5 5 6 7 5 4 4 3 2 5 8 7 6 6 7 7 10 12 14 17 18 19 19 19 18
Wind_Direction
142 137 129 124 124 124 120 123 127 129 131 132 133 132 131 132 133 133 131 129 128 126 124 123 121 119 119 118 117 115 113 112 110 109 109 110 109 109 107 105 106 108 112 115 118 119 119 116 115 115 112 113 114 111 113 113 111 111 113 114 113 111 108 106 105 105 107 107 104 102 102 102 104 106 108 108 106 106 110 116 116 114 112 108 106
142 137 131 129 128 125 121 124 127 128 129 130 131 131 131 132 133 133 129 126 124 123 121 120 119 118 118 118 117 116 114 111 110 108 107 109 110 110 110 109 108 109 110 112 114 114 111 107 108 110 109 111 112 112 113 113 111 113 114 113 113 112 110 108 108 107 106 105 104 105 106 105 106 107 108 108 107 107 111 115 116 114 113 112 108
139 137 133 131 129 126 127 128 129 130 129 130 131 132 131 130 132 132 128 124 121 119 119 118 117 118 118 118 116 114 111 110 110 109 109 109 110 112 112 111 109 109 107 108 109 108 106 106 109 110 110 111 111 113 113 113 113 114 115 114 114 112 111 110 109 108 108 108 108 107 105 106 108 109 108 109 108 109 109 113 116 114 114 113 110
140 138 134 132 130 130 132 130 130 130 129 130 131 132 131 131 132 130 125 122 120 119 119 119 119 119 117 116 113 110 108 107 108 108 109 109 109 112 112 111 109 107 106 107 107 107 107 107 108 109 112 113 114 116 117 117 116 116 116 116 114 112 111 110 109 109 110 112 111 110 108 109 109 109 109 109 108 108 108 111 114 114 114 113 111
143 141 138 135 134 136 135 132 131 131 131 132 132 133 134 133 130 125 123 123 122 121 121 123 122 120 116 114 111 108 106 104 104 107 109 109 110 111 110 109 108 106 107 108 107 107 108 109 108 107 111 115 119 121 122 122 120 120 118 117 114 112 111 109 109 109 110 113 114 113 111 111 109 108 109 109 108 108 109 112 113 113 113 111 110
147 144 139 137 138 138 136 136 134 133 134 134 133 136 136 131 125 123 123 122 122 122 123 124 122 120 116 112 109 106 104 103 104 106 108 109 110 111 111 110 109 109 109 109 107 106 105 106 107 107 110 114 120 123 123 121 121 123 122 120 116 113 112 110 109 112 114 116 115 112 111 110 108 110 109 108 110 110 109 109 111 112 111 110 108
148 146 141 141 141 137 136 138 137 137 136 135 136 136 131 124 120 121 122 121 122 123 123 123 123 120 117 112 107 104 103 103 105 107 110 111 112 113 113 112 111 109 107 105 104 103 102 102 102 105 107 109 114 117 119 119 120 123 124 123 120 117 114 112 115 117 118 117 113 111 110 109 109 110 110 110 111 110 108 107 109 109 109 109 107
146 147 142 142 139 135 137 140 141 139 137 137 137 133 127 122 122 123 124 125 125 125 123 123 125 121 117 113 108 106 105 104 106 111 115 117 117 117 115 113 111 108 107 106 104 102 102 102 102 103 104 105 106 108 116 121 120 121 123 125 124 122 116 115 118 120 119 116 112 110 108 108 110 110 108 108 108 107 107 107 107 107 109 109 106
146 146 142 142 138 135 138 144 143 141 141 139 136 132 127 127 129 130 131 130 130 128 124 123 125 122 118 114 109 109 109 107 110 114 118 121 121 120 118 115 112 109 109 110 109 105 102 103 104 107 107 106 106 108 116 119 118 119 122 125 124 121 120 119 121 121 118 115 110 109 109 108 108 107 105 103 104 104 105 106 105 106 109 108 105
148 148 145 143 139 138 143 146 144 143 142 138 136 133 131 134 135 135 135 133 132 128 123 122 124 125 121 117 113 111 111 111 112 113 116 121 121 121 120 117 113 111 111 111 110 106 104 104 104 105 105 104 107 111 116 117 117 120 122 123 122 121 122 122 123 121 118 114 111 111 111 107 103 102 102 102 102 102 103 104 104 107 107 105 102
150 150 148 146 144 144 147 147 146 144 142 140 140 137 137 139 138 137 135 133 131 127 124 123 124 126 125 123 119 116 116 115 114 114 117 120 120 119 119 116 114 114 113 112 109 105 105 105 102 101 101 103 107 109 113 117 118 120 124 123 122 124 126 126 125 121 118 116 114 112 110 106 104 103 103 102 102 102 103 104 106 106 104 103 101
151 151 150 149 148 149 150 149 149 147 145 146 144 144 143 141 140 137 136 134 132 129 127 126 127 128 129 128 125 122 119 117 116 117 119 119 119 117 118 117 115 114 113 112 109 106 107 105 102 99 99 103 105 105 110 117 119 121 126 127 125 128 131 130 125 120 119 119 117 114 112 108 107 106 105 105 105 106 107 107 107 106 105 104 104
152 152 151 149 150 151 153 152 152 151 151 151 150 150 147 145 142 140 139 136 134 131 130 131 131 132 133 132 131 128 122 120 123 124 121 120 115 113 116 117 116 114 113 112 110 107 107 107 103 99 96 101 102 103 107 114 119 122 125 128 129 131 134 131 123 119 119 121 120 117 115 111 108 109 109 109 109 109 109 109 108 107 107 106 106
153 153 152 151 151 154 156 155 154 155 155 154 155 155 152 150 146 145 143 138 138 136 135 136 136 136 137 136 133 130 127 126 130 127 122 121 116 114 118 119 118 117 114 113 111 110 109 108 103 98 96 99 102 102 105 110 117 123 127 130 130 132 136 132 125 121 120 120 120 119 116 113 113 113 112 111 110 109 110 110 110 109 108 108 108
154 154 153 153 153 157 160 157 157 159 158 158 159 160 156 153 148 146 144 142 143 142 140 140 141 140 138 138 134 132 130 131 134 129 125 124 120 121 123 120 119 117 115 114 114 113 111 109 104 100 98 98 100 101 105 112 117 122 129 132 131 134 139 134 128 126 123 121 120 118 115 114 116 115 113 111 110 111 112 111 110 109 108 108 109
155 155 155 154 156 160 161 159 161 162 161 163 163 161 155 152 149 147 148 148 147 146 144 142 145 143 138 137 135 134 134 136 136 130 127 123 118 122 124 121 120 119 117 117 117 117 115 113 107 101 99 99 101 101 102 110 115 119 126 130 130 135 139 135 130 128 126 124 121 117 115 115 116 114 112 111 111 113 112 111 110 109 108 107 106
156 158 157 157 160 163 163 162 164 165 166 166 163 160 155 154 151 150 154 152 150 151 150 147 148 143 138 137 139 138 136 136 132 127 126 122 118 121 125 126 125 123 120 120 120 119 120 119 110 101 97 98 102 104 102 103 110 119 124 126 128 132 136 134 131 131 130 127 123 119 117 117 115 113 113 113 113 113 111 110 110 111 110 110 109
158 160 160 161 164 165 166 165 167 168 169 165 162 162 158 156 154 155 156 153 153 153 151 148 145 142 140 140 142 140 136 135 133 130 126 122 120 121 124 127 127 125 123 122 121 121 125 124 112 104 101 97 98 103 104 104 111 120 121 122 125 130 134 135 133 133 132 130 126 122 120 119 117 115 115 115 114 112 113 114 114 115 115 115 114
159 161 162 164 166 167 169 169 170 171 171 166 163 165 161 158 156 157 157 154 155 151 150 147 145 145 143 142 141 139 136 136 136 131 125 122 121 122 126 130 129 128 127 124 122 123 128 126 114 106 105 102 99 103 108 112 114 116 118 120 126 131 135 135 134 134 135 133 129 126 123 120 118 117 117 117 116 116 116 116 115 116 117 116 115
161 164 165 166 168 171 173 172 172 173 172 168 167 166 163 162 159 158 158 155 153 151 150 149 148 146 142 143 141 138 135 134 134 128 126 126 125 124 128 133 135 134 131 128 127 128 131 128 116 111 110 105 102 103 108 113 113 114 118 122 129 133 135 135 135 137 138 137 133 129 126 124 121 119 120 120 121 120 118 116 115 116 116 115 117
164 167 167 169 172 174 175 174 175 176 174 170 168 166 165 164 159 158 157 154 153 152 152 152 150 146 146 149 145 141 137 135 132 129 129 128 128 127 131 136 139 139 134 133 132 132 133 130 121 118 115 109 105 103 105 107 107 112 117 118 124 130 134 137 139 140 140 140 137 133 130 130 128 126 125 126 126 125 123 120 118 117 115 115 118
166 170 171 173 176 176 177 177 177 178 175 171 169 168 167 164 159 162 159 155 155 155 156 155 150 150 155 155 150 145 140 139 134 131 132 133 135 130 131 136 140 142 138 135 134 135 135 132 129 124 118 114 110 108 108 110 108 110 114 111 113 119 129 144 149 146 144 143 143 140 137 138 137 134 133 132 131 131 128 124 122 120 118 116 115
169 173 174 176 178 179 181 179 178 179 176 173 171 170 169 165 162 165 162 158 159 159 159 156 153 158 162 158 153 148 144 141 134 131 134 136 136 130 131 136 139 141 138 135 131 133 135 131 132 129 126 124 118 111 109 116 120 119 120 111 105 101 105 139 164 162 155 151 151 147 144 145 144 143 142 139 137 137 133 131 133 129 124 118 112
174 175 174 178 181 182 183 181 180 179 177 175 173 172 171 170 167 166 164 162 163 161 161 159 159 163 162 158 154 150 147 141 137 137 137 135 133 132 133 135 136 138 137 134 129 132 136 135 136 137 136 135 129 120 113 118 130 134 140 131 93 79 77 113 169 175 169 164 160 154 150 151 153 155 151 148 149 148 146 146 150 147 138 130 119
174 174 175 179 183 183 183 182 182 181 179 178 176 175 174 173 171 168 167 166 165 165 165 164 164 166 163 159 155 150 148 145 146 148 144 140 138 138 137 137 137 139 140 136 134 135 139 141 143 146 147 146 141 135 128 124 135 145 159 175 9 13 32 80 175 184 181 176 174 168 162 163 167 166 160 160 162 163 166 167 167 165 158 149 138
174 175 177 180 184 185 183 183 183 183 183 182 177 176 177 176 174 171 171 169 170 170 169 169 168 169 165 161 158 154 153 151 154 157 152 150 147 147 148 145 141 141 143 139 137 137 139 144 148 153 158 159 156 151 145 140 150 164 183 203 256 319 329 283 191 191 191 189 193 187 176 175 179 177 173 173 176 182 188 186 186 194 205 208 201
176 178 179 181 184 185 185 185 185 184 186 185 179 178 179 178 176 175 175 173 175 176 171 171 172 170 168 164 163 161 159 157 161 165 162 160 159 160 158 151 145 145 146 145 148 146 145 150 155 162 166 169 171 170 170 171 169 179 206 222 230 240 280 254 201 194 195 195 203 201 187 182 186 189 189 191 195 206 210 209 211 215 234 249 250
177 180 182 182 185 187 187 188 187 187 188 186 182 182 182 180 179 180 179 177 179 179 175 175 175 172 170 169 171 171 166 164 168 171 169 167 167 167 163 158 154 156 160 160 160 155 153 156 162 169 172 176 183 184 183 184 187 194 213 227 230 227 242 241 209 195 196 197 204 205 194 187 191 193 195 202 212 219 222 227 232 234 246 261 255
179 182 184 184 187 188 188 190 189 189 189 188 186 185 184 183 184 184 182 182 183 182 179 179 180 177 174 176 180 181 175 172 175 177 175 171 172 173 172 172 171 171 171 169 167 161 156 156 160 168 171 179 188 190 186 191 205 211 217 228 229 227 230 230 215 199 194 193 198 193 187 189 192 195 196 200 211 218 226 231 235 240 248 261 256
182 184 185 186 188 188 189 191 190 190 190 190 189 188 188 187 188 187 184 185 186 185 184 184 184 183 181 182 183 186 186 181 182 184 184 182 183 185 185 188 189 182 174 172 173 170 161 155 159 161 165 181 193 201 201 205 214 216 220 227 225 222 222 225 220 208 199 191 189 172 165 179 184 191 195 198 208 216 231 236 238 246 251 262 258
183 185 186 186 187 188 191 191 191 192 192 193 191 191 191 191 190 188 187 189 189 188 187 187 188 187 187 188 186 188 196 195 192 193 194 196 197 198 200 200 200 191 184 181 181 183 174 164 166 167 168 181 192 207 214 216 215 215 221 227 224 217 217 221 218 215 211 200 196 179 162 171 183 189 196 204 213 216 227 234 239 248 252 261 263
185 186 187 186 186 189 191 193 193 193 194 195 193 193 193 192 192 190 190 193 193 192 191 190 191 191 193 195 191 191 200 206 208 207 206 207 208 210 211 206 202 199 193 189 191 193 186 177 176 176 178 183 189 205 215 218 218 217 219 223 222 217 214 217 218 217 217 212 211 207 193 190 195 198 202 211 219 221 226 231 234 241 246 251 259
186 188 187 186 187 190 192 194 195 196 198 198 196 195 194 193 193 192 193 195 195 197 196 195 196 196 198 201 198 197 203 209 216 220 217 215 215 215 212 205 199 197 196 193 193 191 191 194 189 187 194 198 200 204 215 221 221 221 218 218 220 216 214 215 219 219 216 219 219 219 218 213 212 213 216 220 227 232 235 241 242 245 250 254 261
185 187 187 187 188 189 191 194 196 199 199 200 200 198 196 195 195 195 196 197 197 199 200 199 201 201 203 206 205 205 208 210 216 223 221 216 215 211 207 202 196 196 196 192 191 193 200 206 204 205 209 216 216 210 227 224 217 219 217 217 218 217 217 215 219 223 217 218 222 225 226 224 225 228 232 234 239 247 250 256 260 260 262 265 270
184 186 188 188 188 189 191 192 196 199 199 202 203 201 199 197 198 198 198 200 200 200 201 201 203 203 204 207 209 212 215 214 216 222 220 216 215 208 202 198 194 193 194 195 195 196 203 209 211 212 214 220 216 210 245 230 208 212 214 212 215 215 216 218 220 225 223 220 224 229 232 234 236 240 245 249 253 259 263 266 267 268 269 270 273
186 187 188 187 188 190 191 192 196 199 200 204 205 204 202 200 200 201 201 202 203 203 202 202 204 203 205 209 211 216 221 222 221 223 221 215 212 207 200 192 191 193 199 204 200 197 208 212 213 215 216 215 207 200 238 223 201 206 210 208 213 216 214 218 223 228 231 232 231 231 236 241 243 248 250 255 260 265 272 274 273 273 274 274 275
188 188 187 187 187 190 191 192 195 198 201 204 206 207 205 204 203 202 202 204 205 206 204 206 207 205 206 210 212 216 221 223 221 220 218 209 202 198 195 192 194 198 198 198 195 204 215 213 215 214 210 209 204 199 206 193 192 203 211 212 215 219 219 220 225 234 239 240 240 236 237 240 243 252 250 252 261 268 274 277 279 279 277 277 278
190 189 189 189 188 190 191 193 196 199 202 204 207 209 209 208 206 205 205 205 208 209 208 211 210 208 209 210 212 213 215 216 213 213 210 202 194 190 194 196 199 200 192 187 189 201 205 207 212 207 204 204 201 197 183 158 180 200 210 217 220 223 226 224 227 238 243 247 248 247 249 245 246 255 256 257 259 265 272 277 280 283 283 283 282
190 190 190 190 190 191 192 193 195 198 202 206 208 210 211 210 209 208 208 209 210 211 213 214 213 213 212 211 212 210 209 209 207 206 203 199 194 193 198 201 203 202 194 187 188 197 196 199 202 199 202 202 202 204 186 168 172 187 190 200 213 220 222 218 226 241 249 253 254 256 259 256 257 263 268 270 264 264 271 275 278 284 290 289 285
190 190 190 190 190 191 192 193 195 196 199 203 205 208 210 210 210 210 211 211 211 213 216 216 218 218 213 211 210 208 208 206 205 203 202 202 200 199 201 203 205 205 200 193 193 198 197 196 198 198 205 207 213 210 195 189 175 165 164 174 196 206 212 217 228 240 247 253 254 257 261 260 261 267 275 278 275 274 277 279 281 286 294 293 287
190 190 189 189 190 190 192 194 195 195 195 198 201 204 206 205 206 208 209 210 209 214 218 220 224 220 213 211 208 208 209 208 207 206 206 209 208 205 204 206 207 204 204 202 202 207 203 200 199 200 210 214 214 205 203 203 178 162 167 179 194 200 206 225 240 246 250 256 259 259 264 266 263 265 274 278 280 282 283 285 285 288 293 295 290
189 190 190 190 191 191 192 194 195 195 196 198 201 204 206 205 203 205 207 208 210 214 218 221 221 215 212 212 212 213 213 211 211 210 212 216 215 211 208 208 206 201 203 207 210 215 211 206 202 203 208 204 198 197 202 201 181 177 177 171 208 220 224 239 245 250 258 263 265 264 264 268 269 269 271 273 277 280 283 284 283 285 288 290 292
188 189 191 191 191 191 193 195 195 196 198 200 203 205 206 206 204 204 205 206 210 214 218 217 212 211 213 216 217 218 215 212 212 213 216 219 220 217 210 207 205 201 204 208 211 216 215 211 207 205 198 184 179 179 180 177 176 173 147 104 314 303 271 268 254 251 263 266 265 266 266 269 273 273 271 270 271 274 278 281 279 282 284 287 290
187 188 191 191 191 192 194 195 196 198 198 200 204 206 206 205 205 206 207 207 210 212 215 212 209 211 215 218 219 218 216 213 211 213 217 219 221 219 211 205 204 203 206 209 212 215 214 212 210 208 197 180 175 178 178 185 195 185 140 74 42 46 316 284 270 260 264 267 267 271 273 274 276 274 271 269 270 273 276 277 278 280 282 284 286
187 189 191 191 192 193 194 196 197 198 198 198 202 205 204 202 202 202 202 203 207 209 209 209 210 212 214 215 215 216 217 214 212 212 215 220 220 214 209 206 205 204 206 210 214 215 212 210 212 211 203 190 180 186 196 210 216 207 191 148 77 40 249 265 300 273 262 263 268 274 276 276 277 274 272 271 271 273 274 275 277 279 281 284 285
190 190 191 192 193 194 195 196 197 197 197 197 200 202 201 200 199 195 192 193 199 205 208 209 210 212 215 216 214 215 217 214 212 212 214 218 216 208 205 205 206 207 207 209 211 214 211 209 211 211 209 212 204 201 211 222 225 216 216 225 243 262 250 207 92 293 275 264 259 268 276 278 277 274 272 272 272 272 273 274 277 280 283 284 285
191 191 191 193 194 194 194 195 196 196 195 196 198 200 199 199 199 199 198 196 198 204 209 212 213 215 218 219 216 215 215 213 211 211 214 214 210 205 202 204 209 209 209 209 210 212 211 209 211 211 214 221 226 227 229 230 225 223 231 241 253 276 276 202 172 250 304 272 262 267 275 277 275 274 273 273 273 272 273 273 275 279 283 285 286
190 190 191 193 194 194 194 194 195 196 195 196 198 198 199 199 200 202 204 204 204 206 210 213 216 218 221 221 219 216 214 212 210 210 212 210 207 207 204 205 210 211 210 210 210 210 210 211 212 214 217 221 229 236 237 234 227 232 245 242 253 280 265 226 241 243 164 272 290 278 276 281 280 277 276 275 272 271 274 275 276 280 284 287 287
190 191 192 193 194 195 193 193 194 195 196 196 197 198 199 200 201 202 206 208 209 210 211 213 216 219 220 221 219 216 214 211 210 210 210 208 208 211 210 208 208 209 210 210 209 210 211 215 218 217 217 219 229 233 238 241 234 239 259 245 247 267 246 241 257 243 176 201 290 275 291 307 304 293 286 280 275 272 273 276 278 280 284 288 288
191 191 192 193 193 194 193 192 194 195 197 197 197 198 199 201 201 203 206 208 209 211 212 212 215 218 218 218 217 216 214 211 210 210 209 209 209 210 213 214 210 209 212 214 213 213 216 220 224 224 221 223 231 231 232 239 236 243 265 255 247 251 247 243 240 234 233 244 253 280 303 311 312 316 312 296 286 279 278 278 278 280 283 286 289
191 191 192 193 193 193 193 193 194 196 197 197 198 198 199 202 203 204 207 208 207 210 210 210 213 214 214 215 215 215 214 211 210 211 211 213 213 212 215 219 217 214 215 218 218 218 220 224 228 229 228 232 236 232 229 230 232 242 257 260 257 267 269 261 259 265 268 259 247 286 306 309 295 312 334 320 300 289 284 281 278 280 284 288 291
Height
806 806 807 807 810 810 812 813 815 817 818 818 819 820 820 821 821 821 822 823 823 824 824 824 825 825 825 825 826 826 826 826 826 826 826 826 826 826 826 827 826 827 827 827 827 827 828 828 829 829 829 829 830 830 831 831 831 831 832 832 832 832 832 833 833 833 833 834 834 834 835 835 835 835 836 836 836 837 837 838 838 838 839 840 840
806 808 808 809 811 811 813 814 815 816 818 819 819 820 821 821 822 823 823 824 824 825 825 826 826 826 827 827 827 827 827 827 827 827 827 827 827 827 828 828 828 828 828 828 828 828 829 829 830 829 830 831 831 832 832 832 832 833 833 833 833 833 834 834 834 834 835 835 835 835 836 836 836 837 837 837 838 838 839 839 840 840 840 841 841
807 809 809 810 812 813 814 815 816 817 818 819 820 821 821 822 822 823 824 824 825 826 826 827 827 828 828 828 828 828 828 827 828 828 828 828 828 829 829 829 829 829 829 830 830 830 830 831 831 830 831 832 832 833 833 833 833 833 833 834 834 834 835 835 835 835 835 836 836 836 837 837 838 838 838 839 839 839 840 840 841 841 842 842 843
808 809 810 811 812 814 815 816 817 818 819 819 821 821 822 823 823 824 825 826 826 827 827 828 828 829 829 829 829 828 828 828 828 829 829 829 829 830 830 830 830 831 831 831 831 831 832 832 832 831 832 833 833 833 834 834 834 834 834 835 835 835 836 836 836 836 836 836 837 837 838 839 839 840 840 840 840 841 841 842 842 843 843 844 844
809 810 811 812 813 815 816 817 818 819 820 820 821 822 823 823 824 825 826 827 827 828 828 829 829 830 830 830 830 829 829 829 830 830 830 830 830 831 831 831 832 832 832 833 833 833 833 833 833 833 833 834 834 834 835 835 835 835 835 836 836 837 837 837 837 837 837 838 838 838 839 840 840 841 841 842 842 842 843 843 844 844 845 845 846
810 811 812 813 815 816 817 818 819 820 820 821 822 822 823 824 825 826 827 828 828 829 829 830 830 830 830 830 830 830 831 831 831 831 831 831 832 832 832 833 833 833 834 834 834 834 834 834 834 834 834 835 835 835 835 836 836 837 837 837 837 838 838 838 838 839 839 839 840 840 841 841 842 842 843 843 843 844 844 845 845 846 846 847 847
811 812 813 814 816 817 818 819 820 821 821 822 823 823 824 824 826 826 827 828 829 830 830 830 831 831 831 831 831 831 832 832 832 832 833 833 833 833 834 834 834 835 835 835 835 835 835 835 835 835 836 836 836 836 836 836 837 837 838 838 838 839 839 840 840 840 840 840 841 841 842 842 843 844 844 844 845 845 846 846 847 847 848 848 849
811 813 814 815 816 817 819 820 821 822 823 823 824 825 825 826 827 828 829 829 830 831 831 831 832 832 832 832 832 833 833 833 834 834 834 834 834 835 835 835 836 836 836 836 836 836 836 837 837 837 837 837 837 837 837 837 838 838 839 839 839 840 840 841 841 841 841 842 842 843 843 844 844 845 845 846 846 847 847 848 848 849 849 850 850
812 813 814 816 817 818 819 821 822 823 824 825 825 826 827 828 829 830 831 831 832 832 832 832 833 833 833 834 834 834 835 835 835 835 836 835 836 836 836 837 837 837 837 838 838 838 838 838 838 838 838 839 838 838 838 839 839 840 840 841 841 841 842 842 842 843 843 844 844 844 845 845 846 846 847 847 848 848 849 849 850 850 851 851 852
812 814 815 817 818 819 821 822 823 824 825 825 826 827 828 829 830 831 832 832 833 833 834 834 834 834 835 835 835 836 836 836 837 837 837 837 837 837 837 838 838 838 838 839 839 839 839 839 839 839 840 840 840 839 840 840 840 841 842 842 842 843 843 843 844 844 844 845 845 846 847 847 848 848 849 849 849 850 850 851 851 852 852 853 853
814 816 817 818 820 821 822 823 824 825 825 826 827 828 829 830 831 832 833 833 834 834 835 835 836 836 836 837 837 837 837 838 838 838 838 838 838 839 839 839 839 839 840 840 840 840 840 841 841 841 841 841 841 840 841 841 841 842 843 844 844 844 844 844 845 845 846 846 847 847 848 848 849 850 850 851 851 851 852 852 853 853 854 854 855
815 817 818 820 821 823 824 825 825 826 827 827 828 829 830 831 832 833 834 834 835 835 836 836 837 837 838 838 838 838 839 839 839 840 840 840 840 840 840 840 840 841 841 841 841 842 842 842 842 842 842 842 842 842 842 842 842 843 844 845 845 845 845 846 846 847 847 848 848 849 850 850 850 851 852 852 852 853 853 854 854 855 855 856 856
816 818 820 822 823 825 825 826 827 827 828 829 830 830 832 832 833 834 835 836 836 836 836 837 838 839 839 839 839 840 840 840 840 841 841 841 841 841 841 842 842 842 842 842 843 843 843 844 844 843 843 843 843 843 843 843 844 844 845 846 846 846 847 847 848 848 849 849 850 850 851 851 852 853 853 854 854 854 854 855 856 856 857 857 857
816 819 821 822 824 826 826 827 828 829 830 830 831 832 833 833 835 835 836 836 837 837 838 839 839 840 840 840 841 841 841 841 842 842 842 842 842 843 842 843 843 843 844 844 844 845 845 845 845 845 844 844 844 844 845 845 845 846 847 848 847 848 848 849 849 850 850 851 851 852 852 853 853 854 854 855 855 855 856 856 857 857 858 858 859
817 819 821 823 824 826 827 828 829 830 831 831 832 833 834 835 836 837 837 837 838 838 839 840 840 841 841 841 842 842 843 843 843 843 843 844 844 844 844 844 844 845 845 846 846 846 847 846 846 846 846 846 845 846 846 847 847 847 848 849 849 849 850 850 851 851 852 852 853 853 853 854 855 855 855 856 856 857 857 858 858 859 859 859 860
818 820 822 823 825 827 828 829 830 831 832 833 833 834 835 836 837 838 838 838 839 839 840 841 841 842 842 842 843 843 844 844 845 844 845 845 845 845 845 845 845 846 846 847 847 848 848 847 847 847 847 847 847 847 848 848 848 849 850 850 850 850 851 852 852 853 853 854 854 855 855 856 856 856 857 857 858 858 859 859 859 860 860 860 860
819 821 822 824 826 827 829 830 831 832 832 833 834 835 836 837 838 839 839 839 840 841 841 841 842 842 843 843 844 844 845 845 846 846 846 846 846 846 846 847 847 847 848 848 849 849 849 849 849 849 849 849 849 849 849 849 850 851 851 851 851 852 853 853 854 854 854 855 855 856 856 857 857 858 858 859 859 860 860 860 860 861 861 861 861
820 822 823 825 826 828 829 830 831 832 833 834 835 835 836 837 839 839 840 841 841 842 842 842 843 843 844 844 845 845 846 846 847 847 847 847 847 848 848 848 848 849 849 850 850 850 850 850 850 850 850 850 851 851 851 851 852 852 852 852 853 854 854 855 855 855 856 856 857 857 858 858 859 859 860 860 861 861 861 861 861 862 862 862 862
821 822 823 825 826 828 829 831 832 832 833 834 835 836 837 838 839 840 840 841 842 842 843 843 844 844 845 845 846 846 847 848 848 848 848 849 849 849 849 849 850 850 851 851 851 851 851 852 851 852 852 852 852 853 853 854 854 853 853 854 854 855 855 856 856 856 857 857 858 858 859 860 860 861 861 861 862 862 862 862 862 862 863 863 863
822 823 824 826 827 829 829 831 832 833 834 834 836 836 837 838 839 841 841 842 842 843 844 844 845 845 846 846 847 847 848 849 849 849 849 850 850 850 850 851 851 851 851 852 852 852 853 853 853 853 853 854 854 854 855 855 855 854 855 855 856 856 856 857 857 857 858 858 859 859 860 861 861 861 862 862 862 863 863 863 863 863 863 863 863
823 823 825 827 828 829 830 831 832 833 834 835 836 837 838 839 840 841 842 842 843 844 844 845 846 846 847 847 848 848 849 850 850 850 850 851 851 851 851 852 852 852 852 853 853 853 854 854 854 854 855 855 855 855 856 856 856 855 856 856 857 857 857 858 858 858 859 859 860 860 861 861 862 862 862 863 863 863 863 863 864 864 864 864 864
822 824 825 827 828 829 830 831 832 833 834 835 836 837 839 840 841 842 842 843 843 844 845 846 847 847 848 848 849 849 850 851 851 851 852 852 852 852 852 853 853 853 854 854 854 855 855 855 855 856 856 856 856 856 857 857 857 857 857 857 858 858 858 859 859 859 860 860 861 861 861 862 862 863 863 863 864 864 864 864 864 864 864 864 864
822 823 825 827 828 829 830 831 832 833 834 835 837 838 839 840 841 842 842 843 844 845 846 846 847 848 849 849 850 850 851 851 852 853 853 853 853 853 854 854 854 855 855 855 856 856 856 856 857 857 857 858 858 858 858 858 858 858 858 858 858 859 859 859 860 860 861 861 861 862 862 863 863 863 864 864 864 865 865 865 865 865 865 865 865
821 823 824 826 828 829 830 831 832 833 834 835 837 838 839 840 841 842 843 844 844 845 846 847 848 849 849 850 851 851 852 852 853 854 854 854 854 855 855 856 856 856 857 857 857 857 858 858 858 858 859 859 859 859 859 859 859 859 859 859 859 859 860 860 861 861 861 862 862 863 863 863 864 864 865 865 865 865 865 865 865 865 865 866 866
821 823 824 826 828 829 830 831 832 833 834 836 837 838 839 840 841 842 843 844 845 846 847 848 849 849 850 851 852 852 853 853 854 854 855 855 856 856 857 857 858 858 858 858 858 859 859 859 859 860 860 860 860 860 860 860 860 860 860 859 860 860 860 861 861 862 862 863 863 863 864 864 864 865 865 865 866 866 866 866 866 866 866 866 866
821 823 824 826 828 829 830 831 833 833 834 836 837 839 839 840 842 843 844 844 845 846 847 849 849 850 851 852 852 853 853 854 855 855 856 856 857 858 858 859 859 859 859 859 860 860 860 860 860 860 861 861 861 861 861 861 861 861 861 860 861 861 861 861 862 862 863 863 863 864 864 865 865 865 866 866 866 866 866 867 866 866 867 867 867
821 822 824 826 827 829 831 832 833 833 834 836 837 839 839 841 842 843 844 845 846 847 848 849 850 851 851 852 853 853 854 855 856 856 857 857 858 859 859 860 860 860 860 861 861 861 861 861 861 861 861 862 862 862 861 861 861 861 861 861 861 861 861 862 862 863 863 863 864 864 865 865 865 866 866 866 867 867 867 867 867 867 867 867 868
821 822 824 825 827 829 830 832 833 833 834 836 837 838 840 841 842 843 844 845 846 847 849 850 851 851 852 853 853 854 855 856 856 857 858 858 859 860 860 861 861 861 861 861 862 862 862 862 862 862 862 862 862 862 862 862 862 862 862 862 862 862 862 862 863 863 863 864 864 864 865 865 866 866 866 867 867 867 867 867 867 867 868 868 868
820 822 823 825 827 828 830 831 833 833 834 836 837 838 840 841 842 843 844 846 847 848 849 850 851 852 852 853 854 855 855 856 857 858 858 859 859 860 861 861 861 862 862 862 862 862 862 862 863 863 863 863 862 863 863 863 862 862 862 862 862 863 863 863 863 864 864 864 865 865 865 865 865 866 866 867 867 867 867 867 867 868 868 868 868
820 821 823 824 826 828 830 831 832 833 834 836 837 838 839 841 842 843 845 846 847 848 849 850 851 852 853 854 854 855 856 857 857 858 859 859 860 860 861 861 862 862 862 862 862 862 862 863 863 863 863 863 863 863 863 863 863 862 863 863 863 863 863 863 864 864 865 865 865 865 865 865 865 866 866 866 867 867 867 867 868 868 868 868 868
820 821 822 824 826 828 829 831 832 833 835 836 837 838 839 841 842 844 845 846 847 849 850 851 852 852 853 854 855 855 856 857 858 859 859 860 860 861 861 862 862 862 863 863 863 863 863 863 863 863 863 863 863 863 863 863 863 863 863 863 863 863 864 864 864 865 865 865 866 866 866 866 866 866 866 866 867 867 867 867 868 868 868 868 868
819 820 822 823 825 827 828 830 832 833 835 836 837 838 839 840 842 843 845 846 847 849 850 851 852 853 854 854 855 856 857 857 858 859 859 860 860 861 861 862 862 862 863 863 863 863 863 863 863 863 863 863 863 863 863 863 863 863 863 863 863 864 864 864 865 865 865 866 866 866 866 866 866 866 866 866 866 867 867 867 868 868 868 868 868
818 820 822 823 825 826 828 830 831 833 834 835 837 838 839 840 842 843 845 846 847 848 850 851 852 853 854 855 856 856 857 857 858 859 859 860 860 861 861 862 862 863 863 863 863 863 863 863 863 863 863 863 863 863 863 863 863 863 863 863 863 864 864 865 865 865 866 866 866 866 866 866 866 866 866 866 866 866 867 867 867 867 867 867 867
817 820 821 822 825 826 828 829 831 833 834 835 837 838 839 840 842 843 845 846 847 848 849 851 852 853 854 855 856 856 857 858 858 859 859 860 860 861 861 862 863 863 863 863 863 864 863 863 863 863 863 863 863 863 863 863 863 863 863 863 864 864 864 865 865 865 866 866 866 866 866 866 866 866 866 866 866 866 867 867 867 867 867 867 866
816 818 820 822 824 825 827 828 830 832 833 835 836 837 839 840 842 843 845 846 847 848 849 850 852 853 854 855 856 856 857 858 858 859 859 860 860 861 861 862 863 863 863 864 864 864 863 863 863 863 863 863 863 863 863 862 862 863 863 863 864 864 865 865 865 865 866 866 866 866 865 866 866 866 866 866 866 866 867 867 866 866 866 866 866
815 817 819 821 823 825 826 828 829 831 832 834 835 837 839 840 842 843 844 846 847 848 849 850 851 852 853 854 855 856 857 857 858 859 859 860 860 860 861 862 863 863 863 864 864 864 863 863 863 863 863 863 863 863 863 862 862 863 863 863 864 864 865 865 865 865 866 866 866 865 866 866 866 866 866 866 866 866 866 866 866 866 865 865 865
814 816 818 820 822 824 826 827 828 830 831 833 835 837 839 840 842 843 844 846 847 848 849 850 851 852 853 853 854 855 856 857 858 858 859 860 860 860 861 862 862 863 863 863 863 863 863 863 863 863 863 863 863 863 863 862 862 863 863 863 864 864 865 865 865 866 866 866 866 866 866 866 866 866 866 866 866 866 866 865 865 865 865 865 865
813 815 817 819 821 823 825 826 827 829 831 832 834 836 838 840 842 843 844 845 847 848 849 850 851 852 852 853 854 855 856 856 857 858 859 860 860 860 861 862 862 863 863 863 863 863 863 863 863 863 863 863 863 863 863 863 863 863 863 864 864 864 865 865 865 865 866 865 865 866 866 866 866 866 866 866 866 865 865 865 865 865 864 865 865
812 814 816 818 820 822 823 825 827 828 830 832 834 836 838 840 841 843 844 845 846 847 848 849 850 851 852 853 854 854 855 856 857 858 859 859 860 860 861 861 862 862 863 863 863 863 863 863 863 863 863 863 863 863 863 864 864 864 864 864 864 864 865 865 865 865 865 865 866 866 865 865 865 865 866 865 865 865 865 865 865 864 864 864 864
810 812 815 817 818 820 822 824 826 827 829 831 833 835 837 839 840 842 843 844 845 846 847 848 849 850 851 852 853 854 855 856 857 858 858 859 859 860 861 861 862 862 863 863 863 864 863 863 863 863 863 863 864 864 864 864 864 865 865 865 865 865 865 865 865 865 865 865 865 865 865 865 865 865 865 865 865 865 865 865 864 864 864 864 864
809 811 813 815 817 818 821 822 824 826 828 829 831 833 835 837 838 840 841 843 844 845 846 848 848 850 851 852 853 853 854 855 856 857 858 859 859 860 861 861 862 862 862 863 864 864 864 863 863 863 863 863 864 864 864 864 865 865 865 865 865 865 865 865 865 865 865 865 865 865 865 865 865 865 865 865 865 865 865 865 864 864 864 863 863
806 809 811 813 815 817 819 821 823 825 826 828 830 831 833 835 837 838 840 842 843 844 845 846 848 849 850 851 852 853 854 855 856 857 858 858 859 860 860 861 861 862 862 863 864 864 864 864 863 864 864 864 864 864 864 864 865 865 865 866 866 866 865 865 865 865 865 865 865 865 865 865 865 865 865 865 865 865 865 864 864 864 863 863 863
804 807 809 812 814 815 817 819 821 823 825 827 828 830 832 834 836 838 840 841 843 844 845 846 847 848 850 851 852 853 854 854 855 856 857 858 859 860 860 861 861 862 862 863 863 863 864 864 864 864 864 864 864 864 864 864 865 865 866 867 868 867 867 866 865 865 865 865 865 864 864 864 864 865 865 865 864 864 864 864 863 863 863 862 862
802 805 807 810 811 813 815 817 819 821 823 825 827 830 832 835 837 838 840 841 843 844 845 846 847 848 849 850 851 852 853 854 855 856 857 858 859 859 860 861 861 861 862 862 863 863 863 864 864 864 864 864 864 864 865 865 865 865 867 869 869 870 871 868 865 865 865 865 864 864 864 864 864 864 864 864 864 864 864 863 863 862 862 862 862
800 802 804 807 809 811 813 816 818 820 822 824 826 829 832 834 837 839 840 841 842 843 844 845 846 847 848 849 850 851 852 854 855 856 857 858 858 859 860 860 861 861 861 862 862 863 863 863 864 864 864 864 864 865 865 865 865 865 866 868 870 872 872 868 866 865 864 864 864 863 863 863 863 864 863 863 863 863 863 863 862 862 861 861 861
796 799 801 804 807 809 811 814 817 819 821 823 825 828 830 832 834 836 838 839 840 841 842 843 844 846 847 848 850 851 852 853 854 855 856 857 858 859 859 860 860 861 861 861 862 862 863 863 863 864 864 864 865 865 865 865 865 865 865 866 868 869 868 866 868 868 865 863 863 863 863 863 863 863 863 862 862 862 862 862 861 861 861 861 861
793 797 800 802 805 807 810 812 815 817 819 821 824 826 828 831 832 834 835 836 837 838 840 842 843 845 846 848 849 850 851 853 854 855 856 857 858 858 859 860 860 860 861 861 861 862 863 863 864 864 864 865 865 865 865 865 865 865 866 866 866 866 866 866 867 869 868 866 863 863 863 862 862 862 861 861 861 861 861 861 860 860 860 860 860
792 795 798 800 803 805 807 810 813 816 818 820 822 824 826 829 831 832 834 835 836 837 840 841 843 845 846 847 848 849 851 852 853 854 855 856 857 858 859 859 860 860 860 861 861 862 862 863 863 864 864 864 865 865 865 865 865 865 866 866 866 866 866 866 866 867 868 868 865 863 862 862 862 861 860 860 860 860 860 859 859 859 859 859 859
790 793 795 798 801 803 806 808 811 814 816 818 820 822 825 827 829 831 833 834 836 838 839 841 842 844 845 846 847 849 850 851 852 853 855 856 856 857 858 859 859 860 860 860 861 862 862 863 863 864 864 864 865 865 865 865 865 866 866 865 866 866 866 866 866 865 866 868 868 864 862 862 861 860 860 859 859 859 859 859 858 858 858 858 859
788 791 794 796 799 802 804 807 809 812 815 817 819 821 823 826 828 830 831 833 835 837 839 840 841 842 844 845 846 848 849 850 851 852 854 855 856 857 857 858 859 859 860 860 861 861 862 863 863 863 864 864 864 865 865 865 865 865 866 865 865 866 866 865 865 865 865 866 867 865 863 863 862 860 860 859 859 858 858 858 858 858 858 858 858
787 790 792 795 797 800 802 804 807 810 813 815 817 819 821 824 826 828 830 832 833 835 837 838 839 841 842 843 845 846 848 849 850 851 853 854 855 856 857 857 858 859 859 860 860 861 862 862 863 863 864 864 864 864 864 865 865 865 865 865 865 865 865 865 865 865 865 865 866 865 864 863 862 861 860 859 859 858 858 857 857 857 857 857 857